World > North America > United States > Wisconsin   City of Appleton, WI
Hourly regional weather for Appleton, WisconsinAppleton, Wisconsin Regional Hourly Weather

Appleton, Wisconsin Regional Weather

regional weather appleton, wiHOURLY REGIONAL WEATHER FOR APPLETON, WI
Lat: 44.26N, Lon: 88.4W 
Web Search
Appleton Weather Warning NWS WEATHER ALERT FOR THE APPLETON, WI AREA - Issued: 409 AM CST Wed Jan 19 2022 Appleton Weather Warning  

Ads allow us to feed your daily addiction for the world's greatest weather information. We're determined to offer quality sponsors, in the least annoying way possible.

Feedback


°F Click to change Appleton hourly weather to Imperial units.Click to change Appleton hourly weather to Metric units. °C
Appleton Weather Map
UTC Time: 1/19/2022, 20:00
Your Time:

Appleton, WI Regional Weather

Expires:202201192000;;478110
ASUS43 KMKX 191920
RWRWI 

WISCONSIN REGIONAL WEATHER ROUNDUP
NATIONAL WEATHER SERVICE MILWAUKEE/SULLIVAN WI
100 PM CST WED JAN 19 2022

NOTE: "FAIR" INDICATES FEW OR NO CLOUDS BELOW 12,000 FEET WITH NO
SIGNIFICANT WEATHER AND/OR OBSTRUCTIONS TO VISIBILITY.


WIZ011>013-019>022-031-037>040-048>050-192000-
NORTHEAST WISCONSIN
  
CITY           SKY/WX    TMP DP  RH WIND       PRES   REMARKS
ANTIGO         CLOUDY    12   0  57 NW17      30.06R WCI  -5          
SHAWANO        MOSUNNY   19   2  48 NW14G21   30.09R WCI   5          
OCONTO         CLOUDY    19   3  50 NW10      30.07R WCI   7          
STURGEON BAY   CLOUDY    18   6  59 NW14      30.04R WCI   4          
GREEN BAY      SUNNY     18   3  52 NW16      30.08R WCI   3          
MANITOWOC      SUNNY     18   5  57 NW21G29   30.07R WCI   1          
APPLETON       MOSUNNY   16   0  48 NW16G24   30.07R WCI   0          
CLINTONVILLE   MOSUNNY   18   1  49 NW14      30.13R WCI   4          
OSHKOSH        SUNNY     14   3  61 NW15G29   30.10R WCI  -1          
$$
 

SKY/WX - Weather  TMP - Temperature  DP - Dew Point  RH - Relative Humidity
WIND - Wind Direction/Speed PRES - Barometric Pressure VSB - Visibility
WCI - Wind Chill Index E13G22 Wind - East Wind 13 mph/Gusts of 22 mph